D4502 Weather Reports


Display with metric or nautical units.
time (UTC)temp
F
wind
direction
speed
MPH
gust
MPH
rain 1hr
in
rain 24hr
in
rain mn
in
humidity
%
barometer
mb
20260503204239 65 0 4.0 11.0 0.00 0.00 0.00 52 1000.6
20260503203733 64 0 4.0 9.0 0.00 0.00 0.00 56 1000.7
20260503203500 64 0 5.0 9.0 0.00 0.00 0.00 53 1000.8
20260503202732 64 0 5.0 14.0 0.00 0.00 0.00 53 1000.9
20260503202232 64 0 5.0 14.0 0.00 0.00 0.00 53 1000.9
20260503201730 64 0 5.0 11.0 0.00 0.00 0.00 56 1001.0
20260503201230 64 0 5.0 11.0 0.00 0.00 0.00 53 1001.3
20260503200729 63 0 5.0 11.0 0.00 0.00 0.00 54 1001.4
20260503200233 63 0 5.0 13.0 0.00 0.00 0.00 52 1001.4
20260503195729 64 0 6.0 16.0 0.00 0.00 0.00 52 1001.7
20260503195230 64 0 7.0 16.0 0.00 0.00 0.00 52 1001.7
20260503194730 64 0 6.0 16.0 0.00 0.00 0.00 51 1001.7
20260503194230 64 0 6.0 13.0 0.00 0.00 0.00 53 1001.7
20260503193731 63 0 6.0 13.0 0.00 0.00 0.00 49 1001.6
20260503193231 64 0 7.0 13.0 0.00 0.00 0.00 51 1001.8
20260503192729 64 0 7.0 18.0 0.00 0.00 0.00 49 1001.8
20260503192230 64 0 6.0 18.0 0.00 0.00 0.00 47 1001.8
20260503191730 64 0 6.0 13.0 0.00 0.00 0.00 49 1001.8
20260503191455 64 0 6.0 16.0 0.00 0.00 0.00 47 1001.7
20260503190724 64 0 5.0 16.0 0.00 0.00 0.00 50 1001.5
20260503190220 64 0 6.0 15.0 0.00 0.00 0.00 49 1001.7
20260503185721 64 0 8.0 18.0 0.00 0.00 0.00 50 1001.9
20260503185220 63 0 8.0 18.0 0.00 0.00 0.00 49 1001.8
20260503184721 63 0 6.0 14.0 0.00 0.00 0.00 52 1001.9
20260503184220 63 0 5.0 12.0 0.00 0.00 0.00 52 1002.1
20260503183719 63 0 6.0 12.0 0.00 0.00 0.00 54 1002.0
20260503183658 63 0 5.0 18.0 0.00 0.00 0.00 53 1002.3
20260503182722 62 0 6.0 18.0 0.00 0.00 0.00 53 1002.3
20260503182219 62 0 7.0 12.0 0.00 0.00 0.00 51 1002.3
20260503181721 62 0 7.0 12.0 0.00 0.00 0.00 56 1002.4
20260503181443 62 0 7.0 20.0 0.00 0.00 0.00 54 1002.6
20260503181316 62 0 7.0 20.0 0.00 0.00 0.00 55 1002.6
20260503180220 62 0 6.0 13.0 0.00 0.00 0.00 55 1002.8
20260503175719 61 0 6.0 15.0 0.00 0.00 0.00 56 1002.7
20260503175217 61 0 7.0 22.0 0.00 0.00 0.00 56 1002.8
20260503174717 61 0 7.0 22.0 0.00 0.00 0.00 56 1003.1
20260503174211 60 0 6.0 15.0 0.00 0.00 0.00 58 1003.1
20260503173705 60 0 7.0 18.0 0.00 0.00 0.00 58 1003.2
20260503173203 60 0 7.0 18.0 0.00 0.00 0.00 58 1003.4
20260503172656 60 0 7.0 16.0 0.00 0.00 0.00 58 1003.4
20260503172150 59 0 7.0 14.0 0.00 0.00 0.00 60 1003.5
20260503172138 60 0 6.0 14.0 0.00 0.00 0.00 59 1003.6
20260503171143 59 0 6.0 11.0 0.00 0.00 0.00 58 1003.6
20260503170643 59 0 5.0 11.0 0.00 0.00 0.00 58 1004.1
20260503170146 59 0 5.0 13.0 0.00 0.00 0.00 64 1004.1
20260503160143 53 0 4.0 9.0 0.00 0.00 0.00 74 1005.1
20260503150637 56 0 5.0 15.0 0.00 0.00 0.00 61 1005.3
20260503150135 56 0 5.0 11.0 0.00 0.00 0.00 59 1005.2
20260503140126 56 0 5.0 9.0 0.00 0.00 0.00 59 1005.8
20260503131335 52 0 5.0 13.0 0.00 0.00 0.00 61 1006.2
20260503130831 51 0 4.0 13.0 0.00 0.00 0.00 62 1006.2
20260503130108 51 0 4.0 10.0 0.00 0.00 0.00 62 1006.2
20260503110455 48 0 2.0 7.0 0.00 0.00 0.00 59 1006.2
20260503090435 47 0 2.0 6.0 0.00 0.00 0.00 59 1006.9
20260503081420 48 0 1.0 5.0 0.00 0.00 0.00 59 1007.2
20260503081408 48 0 2.0 6.0 0.00 0.00 0.00 57 1007.3
20260503080421 48 0 2.0 7.0 0.00 0.00 0.00 57 1007.3
20260503072421 48 0 1.0 5.0 0.00 0.00 0.00 59 1007.5
20260503071930 48 0 2.0 5.0 0.00 0.00 0.00 59 1007.6
20260503071420 48 0 2.0 7.0 0.00 0.00 0.00 58 1007.6
20260503071142 48 0 2.0 7.0 0.00 0.00 0.00 59 1007.7
20260503070435 48 0 2.0 5.0 0.00 0.00 0.00 59 1007.7
20260503054409 47 0 1.0 6.0 0.00 0.00 0.00 58 1008.2
20260503054131 47 0 1.0 6.0 0.00 0.00 0.00 58 1008.4
20260503053412 47 0 1.0 5.0 0.00 0.00 0.00 58 1008.5
20260503052909 47 0 1.0 5.0 0.00 0.00 0.00 59 1008.5
20260503052408 47 0 1.0 5.0 0.00 0.00 0.00 59 1008.5
20260503051905 47 0 2.0 5.0 0.00 0.00 0.00 59 1008.6
20260503051632 47 0 1.0 5.0 0.00 0.00 0.00 59 1008.6
20260503050904 47 0 1.0 5.0 0.00 0.00 0.00 60 1008.6
20260503050404 47 0 1.0 5.0 0.00 0.00 0.00 60 1008.6
20260503045904 47 0 1.0 5.0 0.00 0.00 0.00 60 1008.7
20260503045406 47 0 1.0 4.0 0.00 0.00 0.00 60 1008.7
20260503045123 47 0 1.0 4.0 0.00 0.00 0.00 60 1008.7
20260503044404 47 0 1.0 2.0 0.00 0.00 0.00 60 1008.7
20260503044121 47 0 1.0 5.0 0.00 0.00 0.00 59 1008.7
20260503043406 46 0 1.0 5.0 0.00 0.00 0.00 59 1008.7
20260503042903 46 0 1.0 5.0 0.00 0.00 0.00 60 1008.7
20260503042403 46 0 1.0 5.0 0.00 0.00 0.00 60 1008.7
20260503041906 46 0 1.0 5.0 0.00 0.00 0.00 60 1008.8
20260503041415 45 0 1.0 4.0 0.00 0.00 0.00 60 1008.9
20260503040903 45 0 1.0 4.0 0.00 0.00 0.00 61 1008.9
20260503040359 45 0 1.0 4.0 0.00 0.00 0.00 62 1008.9
20260503040122 44 0 1.0 4.0 0.00 0.00 0.00 62 1009.0
20260503035359 44 0 1.0 2.0 0.00 0.00 0.00 63 1009.1
20260503034859 44 0 0.0 2.0 0.00 0.00 0.00 64 1009.1
20260503034402 44 0 0.0 2.0 0.00 0.00 0.00 64 1009.1
20260503033901 44 0 0.0 2.0 0.00 0.00 0.00 63 1009.2
20260503033401 44 0 0.0 2.0 0.00 0.00 0.00 63 1009.2
20260503032900 44 0 0.0 2.0 0.00 0.00 0.00 64 1009.2
20260503032403 44 0 0.0 2.0 0.00 0.00 0.00 65 1009.2
20260503032121 44 0 1.0 2.0 0.00 0.00 0.00 66 1009.3
20260503031359 44 0 1.0 2.0 0.00 0.00 0.00 67 1009.3
20260503030859 44 0 0.0 2.0 0.00 0.00 0.00 69 1009.3
20260503030357 44 0 0.0 2.0 0.00 0.00 0.00 70 1009.4
20260503025857 44 0 0.0 0.0 0.00 0.00 0.00 71 1009.5
20260503025616 44 0 0.0 1.0 0.00 0.00 0.00 70 1009.6
20260503024855 44 0 0.0 1.0 0.00 0.00 0.00 70 1009.5
20260503024355 44 0 0.0 2.0 0.00 0.00 0.00 69 1009.5
20260503024121 44 0 0.0 2.0 0.00 0.00 0.00 69 1009.6
20260503023353 45 0 0.0 1.0 0.00 0.00 0.00 68 1009.6
20260503022852 45 0 1.0 4.0 0.00 0.00 0.00 68 1009.5
20260503022351 45 0 1.0 4.0 0.00 0.00 0.00 68 1009.6
20260503021850 45 0 0.0 2.0 0.00 0.00 0.00 68 1009.5
20260503021353 45 0 0.0 2.0 0.00 0.00 0.00 66 1009.5
20260503021329 46 0 0.0 2.0 0.00 0.00 0.00 65 1009.5
20260503020338 46 0 0.0 1.0 0.00 0.00 0.00 63 1009.5
20260503015832 46 0 0.0 1.0 0.00 0.00 0.00 59 1009.5
20260503015326 47 0 0.0 1.0 0.00 0.00 0.00 58 1009.4
20260503015043 47 0 0.0 0.0 0.00 0.00 0.00 57 1009.3
20260503014320 48 0 0.0 1.0 0.00 0.00 0.00 57 1009.3
20260503013816 48 0 0.0 1.0 0.00 0.00 0.00 56 1009.2
20260503013536 49 0 0.0 0.0 0.00 0.00 0.00 55 1009.2
20260503012818 49 0 0.0 1.0 0.00 0.00 0.00 54 1009.2
20260503012316 50 0 0.0 1.0 0.00 0.00 0.00 53 1009.2
20260503011814 50 0 0.0 1.0 0.00 0.00 0.00 53 1009.2
20260503011314 51 0 0.0 1.0 0.00 0.00 0.00 52 1009.2
20260503011037 51 0 0.0 1.0 0.00 0.00 0.00 49 1009.2
20260503010533 51 0 0.0 1.0 0.00 0.00 0.00 48 1009.2
20260503005811 51 0 0.0 1.0 0.00 0.00 0.00 48 1009.2
20260503005309 52 0 0.0 1.0 0.00 0.00 0.00 47 1009.3
20260503005031 52 0 0.0 1.0 0.00 0.00 0.00 47 1009.3
20260503004306 53 0 0.0 2.0 0.00 0.00 0.00 47 1009.2
20260503003807 53 0 0.0 2.0 0.00 0.00 0.00 45 1009.2
20260503003305 53 0 1.0 2.0 0.00 0.00 0.00 46 1009.2
20260503003022 53 0 0.0 2.0 0.00 0.00 0.00 45 1009.3
20260503002522 53 0 1.0 3.0 0.00 0.00 0.00 45 1009.3
20260503001818 54 0 1.0 4.0 0.00 0.00 0.00 44 1009.3
20260503001303 54 0 1.0 4.0 0.00 0.00 0.00 43 1009.3
20260503000801 54 0 1.0 5.0 0.00 0.00 0.00 43 1009.3
20260503000301 54 0 1.0 5.0 0.00 0.00 0.00 44 1009.3
20260502235800 54 0 1.0 5.0 0.00 0.00 0.00 44 1009.4
20260502235300 55 0 1.0 4.0 0.00 0.00 0.00 43 1009.4
20260502234801 55 0 2.0 5.0 0.00 0.00 0.00 43 1009.4
20260502234259 55 0 2.0 5.0 0.00 0.00 0.00 43 1009.5
20260502233758 55 0 2.0 8.0 0.00 0.00 0.00 42 1009.5
20260502233258 55 0 3.0 11.0 0.00 0.00 0.00 42 1009.6
20260502233023 55 0 2.0 11.0 0.00 0.00 0.00 41 1009.7
20260502232301 55 0 1.0 8.0 0.00 0.00 0.00 44 1009.7
20260502231759 55 0 2.0 7.0 0.00 0.00 0.00 43 1009.7
20260502231300 55 0 3.0 7.0 0.00 0.00 0.00 41 1009.8
20260502231025 55 0 3.0 7.0 0.00 0.00 0.00 42 1009.8
20260502230523 55 0 2.0 7.0 0.00 0.00 0.00 44 1009.8
20260502225756 55 0 2.0 6.0 0.00 0.00 0.00 45 1009.8
20260502225532 55 0 2.0 6.0 0.00 0.00 0.00 45 1009.9
20260502224753 55 0 2.0 7.0 0.00 0.00 0.00 43 1009.9
20260502224247 55 0 1.0 7.0 0.00 0.00 0.00 45 1010.1
20260502223739 55 0 2.0 8.0 0.00 0.00 0.00 43 1010.1
20260502223233 55 0 2.0 8.0 0.00 0.00 0.00 43 1010.2
20260502222938 55 0 4.0 8.0 0.00 0.00 0.00 42 1010.1
20260502222824 55 0 3.0 7.0 0.00 0.00 0.00 43 1010.1
20260502221728 55 0 3.0 8.0 0.00 0.00 0.00 40 1010.2
20260502221228 55 0 2.0 6.0 0.00 0.00 0.00 44 1010.3
20260502220731 55 0 2.0 6.0 0.00 0.00 0.00 44 1010.3
20260502220230 55 0 2.0 6.0 0.00 0.00 0.00 42 1010.4
20260502215728 56 0 2.0 8.0 0.00 0.00 0.00 44 1010.5
20260502215228 56 0 4.0 10.0 0.00 0.00 0.00 42 1010.4
20260502214728 56 0 4.0 10.0 0.00 0.00 0.00 44 1010.4
20260502214231 55 0 2.0 10.0 0.00 0.00 0.00 44 1010.5
20260502213953 55 0 2.0 8.0 0.00 0.00 0.00 43 1010.5
20260502213229 55 0 4.0 11.0 0.00 0.00 0.00 42 1010.6
20260502212727 55 0 4.0 11.0 0.00 0.00 0.00 42 1010.6
20260502212224 56 0 3.0 10.0 0.00 0.00 0.00 45 1010.6
20260502211727 56 0 1.0 8.0 0.00 0.00 0.00 45 1010.6
20260502211220 56 0 2.0 12.0 0.00 0.00 0.00 43 1010.7
20260502210720 56 0 3.0 12.0 0.00 0.00 0.00 43 1010.7
20260502210220 56 0 3.0 6.0 0.00 0.00 0.00 45 1010.7
20260502210208 56 0 4.0 10.0 0.00 0.00 0.00 46 1010.7
20260502205220 56 0 5.0 10.0 0.00 0.00 0.00 42 1010.8
20260502204720 56 0 3.0 8.0 0.00 0.00 0.00 45 1010.9